Tracking 20093 objects as of 16-Dec-2019
HD Live streaming from Space Station
objects crossing your sky now

STARLINK-67

Track STARLINK-67 now!
10-day predictions
STARLINK-67 is classified as:


NORAD ID: 44278
Int'l Code: 2019-029AV
Perigee: 305.6 km
Apogee: 330.5 km
Inclination: 53.0 °
Period: 90.7 minutes
Semi major axis: 6689 km
RCS: Unknown
Launch date: May 24, 2019
Source: United States (US)
Launch site: AIR FORCE EASTERN TEST RANGE (AFETR)
aabbcc
Your satellite tracking list
Your tracking list is empty




NASA's NSSDC Master Catalog

Two Line Element Set (TLE):
1 44278U 19029AV  19349.91667824 -.00002213  10948-4  46777-5 0  9996
2 44278  52.9935 231.5220 0018594 268.3505  57.5254 15.86915138 32472
Source of the keplerian elements: AFSPC